Location: Grantsboro
(35.1404°N, 76.8424°W)
Time: 21:44:37
(UTC+00:00)

USA 32 - Pass Details

Date: 18 January 2020
Orbit: 777 x 783 km, 85.0° (Epoch: 29 January)

Event Time Altitude Azimuth Distance (km) Brightness Sun altitude
Rises 11:32:14 0° 350° (N) 3,266 7.0 -8.8°
Reaches altitude 10° 11:34:38 10° 346° (NNW) 2,335 6.2 -8.4°
Maximum altitude 11:39:42 53° 270° (W) 958 4.2 -7.4°
Drops below altitude 10° 11:44:45 10° 195° (SSW) 2,324 6.6 -6.4°
Sets 11:47:08 0° 191° (S) 3,249 7.4 -6.0°
